Location: Mococo
(38.0255°N, 122.1161°W)
Time: 03:28:29
(UTC+00:00)

Helios 1A Rocket - Pass Details

Date: 13 February 2026
Orbit: 420 x 431 km, 98.3° (Epoch: 7 March)

Event Time Altitude Azimuth Distance (km) Brightness Sun altitude
Rises 14:16:30 0° 161° (SSE) 2,398 6.5 -9.3°
Reaches altitude 10° 14:18:31 10° 158° (SSE) 1,531 5.5 -8.9°
Maximum altitude 14:21:45 67° 76° (ENE) 470 2.7 -8.3°
Drops below altitude 10° 14:25:00 10° 353° (N) 1,531 4.9 -7.6°
Sets 14:27:01 0° 350° (N) 2,398 5.9 -7.3°
